QPF
0.00 0.00 0.00 0.00 0.00 0.00 0.00 0.00 0.00 0.00 0.00 0.00 0.00 0.00 0.00 0.00 0.00 0.00 0.00 0.00 0.00 0.00 0.00 0.00 0.00 0.00 0.00 0.00 0.00 0.00 0.00 0.00 0.00 0.00 0.00 0.00 0.00 0.00 0.00 0.00 0.00 0.00 0.00 0.00
0.00 0.00 0.00 0.00 0.00 0.00 0.00 0.00 0.00 0.00 0.00 0.00 0.00 0.00 0.00 0.00 0.00 0.00 0.00 0.00 0.00 0.00 0.00 0.00 0.00 0.00 0.00 0.00 0.00 0.00 0.00 0.00 0.00 0.00 0.00 0.00 0.00 0.00 0.00 0.00 0.00 0.00 0.00 0.00
0.00 0.00 0.00 0.00 0.00 0.00 0.00 0.00 0.00 0.00 0.00 0.00 0.00 0.00 0.00 0.00 0.00 0.00 0.00 0.00 0.00 0.00 0.00 0.00 0.00 0.00 0.00 0.00 0.00 0.00 0.00 0.00 0.00 0.00 0.00 0.00 0.00 0.00 0.00 0.00 0.00 0.00 0.00 0.00
0.00 0.00 0.00 0.00 0.00 0.00 0.00 0.00 0.00 0.00 0.00 0.00 0.00 0.00 0.00 0.00 0.00 0.00 0.00 0.00 0.00 0.00 0.00 0.00 0.00 0.00 0.00 0.00 0.00 0.00 0.00 0.00 0.00 0.00 0.00 0.00 0.00 0.00 0.00 0.00 0.00 0.00 0.00 0.00
0.00 0.00 0.00 0.00 0.00 0.00 0.00 0.00 0.00 0.00 0.00 0.00 0.00 0.00 0.00 0.00 0.00 0.00 0.00 0.00 0.00 0.00 0.00 0.00 0.00 0.00 0.00 0.00 0.00 0.00 0.00 0.00 0.00 0.00 0.00 0.00 0.00 0.00 0.00 0.00 0.00 0.00 0.00 0.00
0.00 0.00 0.00 0.00 0.00 0.00 0.00 0.00 0.00 0.00 0.00 0.00 0.00 0.00 0.00 0.00 0.00 0.00 0.00 0.00 0.00 0.00 0.00 0.00 0.00 0.00 0.00 0.00 0.00 0.00 0.00 0.00 0.00 0.00 0.00 0.00 0.00 0.00 0.00 0.00 0.00 0.00 0.00 0.00
0.00 0.00 0.00 0.00 0.00 0.00 0.00 0.00 0.00 0.00 0.00 0.00 0.00 0.00 0.00 0.00 0.00 0.00 0.00 0.00 0.00 0.00 0.00 0.00 0.00 0.00 0.00 0.00 0.00 0.00 0.00 0.00 0.00 0.00 0.00 0.00 0.00 0.00 0.00 0.00 0.00 0.00 0.00 0.00
0.00 0.00 0.00 0.00 0.00 0.00 0.00 0.00 0.00 0.00 0.00 0.00 0.00 0.00 0.00 0.00 0.00 0.00 0.00 0.00 0.00 0.00 0.00 0.00 0.00 0.00 0.00 0.00 0.00 0.00 0.00 0.00 0.00 0.00 0.00 0.00 0.00 0.00 0.00 0.00 0.00 0.00 0.00 0.00
0.00 0.00 0.00 0.00 0.00 0.00 0.00 0.00 0.00 0.00 0.00 0.00 0.00 0.00 0.00 0.00 0.00 0.00 0.00 0.00 0.00 0.00 0.00 0.00 0.00 0.00 0.00 0.00 0.00 0.00 0.00 0.00 0.00 0.00 0.00 0.00 0.00 0.00 0.00 0.00 0.00 0.00 0.00 0.00
0.00 0.00 0.00 0.00 0.00 0.00 0.00 0.00 0.00 0.00 0.00 0.00 0.00 0.00 0.00 0.00 0.00 0.00 0.00 0.00 0.00 0.00 0.00 0.00 0.00 0.00 0.00 0.00 0.00 0.00 0.00 0.00 0.00 0.00 0.00 0.00 0.00 0.00 0.00 0.00 0.00 0.00 0.00 0.00
0.00 0.00 0.00 0.00 0.00 0.00 0.00 0.00 0.00 0.00 0.00 0.00 0.00 0.00 0.00 0.00 0.00 0.00 0.00 0.00 0.00 0.00 0.00 0.00 0.00 0.00 0.00 0.00 0.00 0.00 0.00 0.00 0.00 0.00 0.00 0.00 0.00 0.00 0.00 0.00 0.00 0.00 0.00 0.00
0.00 0.00 0.00 0.00 0.00 0.00 0.00 0.00 0.00 0.00 0.00 0.00 0.00 0.00 0.00 0.00 0.00 0.00 0.00 0.00 0.00 0.00 0.00 0.00 0.00 0.00 0.00 0.00 0.00 0.00 0.00 0.00 0.00 0.00 0.00 0.00 0.00 0.00 0.00 0.00 0.01 0.00 0.00 0.00
0.00 0.00 0.00 0.00 0.00 0.00 0.00 0.00 0.00 0.00 0.00 0.00 0.00 0.00 0.00 0.00 0.00 0.00 0.00 0.00 0.00 0.00 0.00 0.00 0.00 0.00 0.00 0.00 0.00 0.00 0.00 0.00 0.00 0.00 0.00 0.00 0.00 0.00 0.00 0.00 0.00 0.00 0.00 0.00
0.00 0.00 0.00 0.00 0.00 0.00 0.00 0.00 0.00 0.00 0.00 0.00 0.00 0.00 0.00 0.00 0.00 0.00 0.00 0.00 0.00 0.00 0.00 0.00 0.00 0.00 0.00 0.00 0.00 0.00 0.00 0.00 0.00 0.00 0.00 0.00 0.00 0.00 0.00 0.00 0.00 0.00 0.00 0.00
0.00 0.00 0.00 0.00 0.00 0.00 0.00 0.00 0.00 0.00 0.00 0.00 0.00 0.00 0.00 0.00 0.00 0.00 0.00 0.00 0.00 0.00 0.00 0.00 0.00 0.00 0.00 0.00 0.00 0.00 0.00 0.00 0.00 0.00 0.00 0.00 0.00 0.00 0.00 0.00 0.00 0.00 0.00 0.00
0.00 0.00 0.00 0.00 0.00 0.00 0.00 0.00 0.00 0.00 0.00 0.00 0.00 0.00 0.00 0.00 0.00 0.00 0.00 0.00 0.00 0.00 0.00 0.00 0.00 0.00 0.00 0.00 0.00 0.00 0.00 0.00 0.00 0.00 0.00 0.01 0.00 0.00 0.00 0.00 0.00 0.00 0.00 0.00
0.00 0.00 0.00 0.00 0.00 0.00 0.00 0.00 0.00 0.00 0.00 0.00 0.00 0.00 0.00 0.00 0.00 0.00 0.00 0.00 0.00 0.00 0.00 0.00 0.00 0.00 0.00 0.00 0.00 0.00 0.00 0.00 0.00 0.00 0.01 0.00 0.00 0.00 0.00 0.00 0.00 0.00 0.00 0.00
0.00 0.00 0.00 0.00 0.00 0.00 0.00 0.00 0.00 0.00 0.00 0.00 0.00 0.00 0.00 0.00 0.00 0.00 0.00 0.00 0.00 0.00 0.00 0.00 0.00 0.00 0.00 0.00 0.00 0.00 0.00 0.00 0.00 0.00 0.00 0.00 0.00 0.00 0.00 0.00 0.00 0.00 0.00 0.00
0.00 0.00 0.00 0.00 0.00 0.00 0.00 0.00 0.00 0.00 0.00 0.00 0.00 0.00 0.00 0.00 0.00 0.00 0.00 0.00 0.00 0.00 0.00 0.00 0.00 0.00 0.00 0.00 0.00 0.00 0.00 0.00 0.00 0.00 0.00 0.00 0.00 0.00 0.00 0.00 0.00 0.00 0.00 0.00
0.00 0.00 0.00 0.00 0.00 0.00 0.00 0.00 0.00 0.00 0.00 0.00 0.00 0.00 0.00 0.00 0.00 0.00 0.00 0.00 0.00 0.00 0.00 0.00 0.00 0.00 0.00 0.00 0.00 0.00 0.00 0.00 0.00 0.00 0.00 0.00 0.00 0.00 0.00 0.00 0.00 0.00 0.00 0.00
0.00 0.00 0.00 0.00 0.00 0.00 0.00 0.00 0.00 0.00 0.00 0.00 0.00 0.00 0.00 0.00 0.00 0.00 0.00 0.00 0.00 0.00 0.00 0.00 0.00 0.00 0.00 0.00 0.00 0.00 0.00 0.00 0.00 0.00 0.00 0.00 0.00 0.00 0.00 0.00 0.00 0.00 0.00 0.00
0.00 0.00 0.00 0.00 0.00 0.00 0.00 0.00 0.00 0.00 0.00 0.00 0.00 0.00 0.00 0.00 0.00 0.00 0.00 0.00 0.00 0.00 0.00 0.00 0.00 0.00 0.00 0.00 0.00 0.00 0.00 0.00 0.00 0.00 0.00 0.00 0.00 0.01 0.01 0.00 0.00 0.00 0.00 0.00
0.00 0.00 0.00 0.00 0.00 0.00 0.00 0.00 0.00 0.00 0.00 0.00 0.00 0.00 0.00 0.00 0.00 0.00 0.00 0.00 0.00 0.00 0.00 0.00 0.00 0.00 0.00 0.00 0.00 0.00 0.00 0.00 0.00 0.00 0.00 0.00 0.00 0.00 0.00 0.00 0.00 0.00 0.00 0.00
0.00 0.00 0.00 0.00 0.00 0.00 0.00 0.00 0.00 0.00 0.00 0.00 0.00 0.00 0.00 0.00 0.00 0.00 0.00 0.00 0.00 0.00 0.00 0.00 0.00 0.00 0.00 0.00 0.00 0.00 0.00 0.00 0.00 0.00 0.00 0.00 0.00 0.00 0.00 0.00 0.00 0.00 0.00 0.00
0.00 0.00 0.00 0.00 0.00 0.00 0.00 0.00 0.00 0.00 0.00 0.00 0.00 0.00 0.00 0.00 0.00 0.00 0.00 0.00 0.00 0.00 0.00 0.00 0.00 0.00 0.00 0.00 0.00 0.00 0.00 0.00 0.00 0.00 0.00 0.00 0.00 0.00 0.00 0.00 0.00 0.00 0.00 0.00
0.00 0.00 0.00 0.00 0.00 0.00 0.00 0.00 0.00 0.00 0.00 0.00 0.00 0.00 0.00 0.00 0.00 0.00 0.00 0.00 0.00 0.00 0.00 0.00 0.00 0.00 0.00 0.00 0.00 0.00 0.00 0.00 0.00 0.00 0.00 0.00 0.00 0.00 0.00 0.00 0.00 0.00 0.00 0.00
MSLP
1010.88 1011.68 1012.09 1012.47 1012.59 1012.80 1013.28 1013.60 1013.84 1013.98 1014.56 1015.64 1017.25 1017.80 1017.98 1017.57 1017.01 1017.01 1017.44 1017.93 1018.38 1018.68 1018.84 1018.72 1018.65 1018.69 1018.86 1018.84 1018.76 1018.52 1018.39 1018.40 1018.09 1017.66 1017.31 1016.83 1016.28 1015.47 1014.89 1014.42 1014.03 1013.54 1012.96 1012.45
1011.44 1011.89 1012.03 1012.14 1012.57 1012.90 1013.36 1013.89 1014.20 1014.42 1014.86 1016.00 1017.76 1018.48 1018.78 1018.70 1018.69 1018.42 1018.34 1018.82 1019.07 1019.27 1019.36 1019.39 1019.41 1019.34 1019.23 1019.15 1019.04 1018.94 1019.02 1018.84 1018.57 1018.14 1017.55 1017.05 1016.60 1015.94 1015.50 1015.02 1014.28 1013.64 1013.16 1012.62
1011.69 1011.90 1011.74 1012.07 1012.80 1013.13 1013.73 1014.01 1014.44 1014.96 1015.47 1016.36 1017.60 1019.00 1019.31 1019.41 1019.43 1019.19 1019.30 1019.37 1019.50 1019.59 1019.64 1019.70 1019.65 1019.60 1019.52 1019.45 1019.37 1019.33 1019.14 1018.91 1018.54 1018.10 1017.51 1016.98 1016.57 1016.06 1015.62 1015.12 1014.54 1014.01 1013.39 1012.72
1011.84 1011.68 1011.92 1012.33 1012.73 1013.20 1013.85 1014.08 1014.70 1015.41 1016.38 1017.16 1017.67 1019.48 1019.78 1019.80 1019.88 1019.90 1019.91 1019.87 1019.84 1019.81 1019.84 1019.96 1020.07 1020.03 1020.00 1019.88 1019.62 1019.32 1019.13 1018.82 1018.30 1017.75 1017.54 1017.48 1017.23 1016.95 1016.36 1015.82 1015.16 1014.34 1013.39 1012.56
1012.31 1012.11 1012.17 1012.53 1012.92 1013.21 1014.08 1014.49 1015.52 1016.17 1017.25 1017.89 1018.25 1019.07 1019.49 1019.73 1019.95 1019.89 1019.91 1020.07 1020.15 1020.25 1020.39 1020.42 1020.38 1020.33 1020.17 1020.05 1019.89 1019.55 1019.18 1018.70 1018.26 1017.98 1017.69 1017.36 1017.11 1016.75 1016.12 1015.46 1014.79 1014.00 1013.26 1012.40
1012.55 1012.30 1012.40 1012.63 1013.14 1013.56 1014.39 1015.39 1016.62 1017.70 1018.51 1019.24 1018.99 1019.35 1019.42 1019.31 1019.06 1019.38 1019.63 1019.89 1020.30 1020.43 1020.57 1020.62 1020.57 1020.48 1020.35 1020.12 1019.79 1019.40 1019.16 1018.80 1018.39 1018.02 1017.67 1017.41 1017.07 1016.50 1015.98 1015.18 1014.60 1013.84 1013.12 1012.40
1013.29 1013.14 1012.89 1012.86 1013.53 1014.22 1015.18 1016.62 1018.23 1019.38 1020.13 1020.26 1019.57 1019.68 1018.53 1018.26 1018.30 1018.49 1018.94 1019.91 1020.26 1020.54 1020.79 1020.86 1020.77 1020.53 1020.29 1020.12 1019.79 1019.44 1019.17 1018.84 1018.33 1017.91 1017.49 1017.12 1016.73 1016.28 1015.79 1015.06 1014.46 1013.81 1013.00 1012.31
1014.52 1014.23 1013.84 1013.79 1014.16 1014.99 1016.23 1017.33 1019.07 1020.36 1021.37 1020.94 1019.99 1019.35 1018.29 1018.11 1018.15 1018.51 1019.21 1019.80 1020.24 1020.58 1020.77 1020.85 1020.67 1020.39 1020.32 1020.11 1019.70 1019.20 1019.00 1018.59 1018.07 1017.71 1017.28 1016.83 1016.38 1015.94 1015.49 1014.84 1014.13 1013.50 1012.83 1012.19
1015.20 1015.10 1014.66 1014.59 1014.67 1015.45 1016.88 1018.12 1019.25 1020.57 1021.99 1021.96 1020.64 1019.59 1018.78 1018.73 1018.87 1019.22 1019.72 1020.00 1020.29 1020.55 1020.59 1020.64 1020.23 1020.20 1020.12 1019.84 1019.41 1019.12 1018.66 1018.14 1017.61 1017.24 1016.92 1016.58 1016.01 1015.44 1014.83 1014.13 1013.59 1013.07 1012.58 1012.01
1015.86 1015.97 1015.77 1015.48 1015.47 1016.27 1017.02 1018.61 1020.01 1021.52 1022.73 1022.88 1021.70 1020.89 1020.08 1019.92 1019.70 1019.83 1020.10 1020.21 1020.36 1020.46 1020.54 1020.49 1020.50 1020.37 1020.04 1019.67 1019.37 1018.94 1018.47 1018.01 1017.53 1017.03 1016.57 1016.10 1015.55 1014.85 1014.16 1013.60 1013.08 1012.56 1011.94 1011.75
1016.45 1016.85 1017.12 1016.77 1017.37 1017.86 1018.36 1019.55 1021.29 1022.38 1023.35 1023.62 1023.08 1021.78 1020.69 1020.48 1020.09 1019.93 1020.02 1020.33 1020.58 1020.69 1020.71 1020.78 1020.56 1020.34 1020.08 1019.63 1019.12 1018.65 1018.11 1017.57 1017.07 1016.39 1016.01 1015.51 1014.81 1014.22 1013.67 1013.26 1012.65 1012.03 1011.62 1011.47
1017.66 1018.34 1018.69 1018.73 1018.69 1018.71 1019.18 1020.64 1021.78 1023.37 1024.19 1024.39 1024.00 1021.76 1020.83 1020.70 1020.37 1020.21 1020.39 1020.51 1020.60 1020.73 1020.86 1020.75 1020.56 1020.28 1019.95 1019.53 1019.13 1018.57 1017.88 1017.33 1016.72 1016.10 1015.67 1014.98 1014.37 1013.78 1013.15 1012.71 1012.16 1011.82 1011.53 1011.42
1018.20 1019.57 1020.08 1019.97 1019.96 1019.54 1020.13 1021.06 1021.98 1023.31 1024.20 1024.32 1024.24 1021.93 1020.92 1020.91 1020.81 1020.73 1020.85 1020.87 1020.82 1020.66 1020.59 1020.59 1020.47 1020.31 1019.97 1019.59 1019.02 1018.46 1017.88 1017.20 1016.48 1015.87 1015.26 1014.57 1014.04 1013.42 1012.72 1012.37 1012.19 1012.00 1011.77 1011.70
1018.59 1020.29 1020.70 1020.81 1020.47 1020.58 1020.94 1021.29 1021.91 1022.95 1024.08 1023.89 1023.01 1021.83 1021.16 1021.12 1021.10 1021.09 1021.10 1020.82 1020.70 1020.58 1020.41 1020.44 1020.54 1020.31 1019.95 1019.42 1018.87 1018.36 1017.68 1017.01 1016.22 1015.54 1014.93 1014.45 1014.07 1013.68 1013.28 1012.92 1012.66 1012.43 1012.22 1012.07
1019.77 1020.99 1021.31 1021.12 1020.94 1020.99 1021.02 1021.23 1021.79 1022.50 1022.69 1023.07 1022.06 1021.86 1021.34 1021.25 1021.26 1021.12 1020.89 1020.78 1020.78 1020.43 1020.25 1020.25 1020.27 1020.13 1019.74 1019.19 1018.68 1018.18 1017.56 1016.82 1016.07 1015.41 1014.79 1014.33 1013.90 1013.95 1013.62 1013.40 1013.13 1013.00 1012.71 1012.57
1020.90 1021.79 1022.18 1022.01 1021.61 1021.44 1021.26 1021.04 1021.07 1021.31 1021.44 1021.76 1021.63 1021.41 1021.10 1021.08 1021.01 1021.00 1020.72 1020.68 1020.52 1020.18 1020.02 1020.09 1020.07 1019.93 1019.58 1019.13 1018.58 1018.02 1017.45 1016.66 1015.98 1015.31 1014.79 1014.17 1014.28 1014.20 1014.07 1013.93 1013.68 1013.42 1013.19 1012.91
1021.85 1022.82 1023.49 1023.09 1022.45 1021.96 1021.55 1020.78 1020.83 1020.77 1021.00 1021.32 1021.61 1021.32 1021.14 1021.04 1020.86 1020.67 1020.46 1020.48 1020.32 1020.06 1019.99 1019.99 1019.92 1019.72 1019.34 1018.98 1018.57 1018.03 1017.37 1016.60 1015.83 1015.27 1014.88 1014.78 1014.70 1014.58 1014.49 1014.35 1014.05 1013.75 1013.44 1013.16
1022.35 1023.44 1024.17 1024.32 1023.45 1022.73 1021.14 1020.51 1020.37 1020.65 1020.85 1021.11 1021.19 1021.10 1021.01 1020.86 1020.73 1020.63 1020.34 1020.32 1020.09 1019.84 1019.84 1019.71 1019.60 1019.34 1019.08 1018.81 1018.40 1017.91 1017.21 1016.41 1015.76 1015.57 1015.36 1015.17 1015.10 1015.03 1014.84 1014.60 1014.33 1014.07 1013.77 1013.48
1022.23 1023.43 1025.10 1025.24 1024.45 1022.84 1021.26 1020.57 1020.42 1020.65 1020.92 1020.61 1021.00 1021.11 1021.02 1020.89 1020.92 1020.57 1020.09 1020.14 1020.05 1019.79 1019.50 1019.51 1019.48 1019.26 1018.94 1018.60 1018.14 1017.73 1017.04 1016.48 1016.20 1015.97 1015.84 1015.75 1015.57 1015.42 1015.11 1014.85 1014.57 1014.26 1013.92 1013.56
1022.58 1023.22 1024.26 1025.28 1024.93 1023.02 1020.99 1020.40 1020.30 1020.83 1021.14 1020.72 1021.06 1021.27 1021.39 1021.39 1021.44 1020.73 1020.60 1020.42 1020.10 1019.85 1019.64 1019.45 1019.30 1019.12 1018.80 1018.26 1018.03 1017.68 1017.09 1016.81 1016.59 1016.54 1016.41 1016.22 1015.96 1015.74 1015.42 1015.09 1014.69 1014.37 1014.09 1013.82
1023.13 1023.99 1024.56 1024.95 1024.32 1022.47 1020.92 1020.35 1020.43 1021.28 1021.60 1021.02 1021.23 1021.43 1021.68 1022.02 1021.84 1021.34 1020.84 1020.47 1020.36 1020.17 1019.80 1019.41 1019.21 1019.06 1018.53 1018.12 1017.99 1017.69 1017.30 1017.14 1017.12 1017.01 1016.76 1016.55 1016.30 1015.98 1015.61 1015.23 1014.89 1014.56 1014.36 1014.08
1022.97 1023.80 1024.34 1024.56 1024.00 1022.53 1020.95 1020.68 1021.05 1021.21 1020.94 1021.06 1021.20 1021.63 1022.00 1022.14 1021.83 1021.37 1021.12 1020.92 1020.60 1020.07 1019.59 1019.36 1019.23 1018.84 1018.26 1018.01 1017.84 1017.60 1017.55 1017.66 1017.53 1017.38 1017.17 1016.92 1016.57 1016.21 1015.78 1015.48 1015.40 1015.12 1014.87 1014.68
1022.85 1022.80 1023.08 1023.41 1022.70 1021.66 1021.07 1020.96 1020.65 1020.88 1021.16 1021.37 1021.75 1022.10 1022.30 1022.34 1021.97 1021.71 1021.51 1021.16 1020.53 1020.10 1019.65 1019.43 1019.26 1018.67 1018.15 1017.68 1017.72 1017.80 1018.07 1018.11 1017.96 1017.79 1017.55 1017.23 1016.83 1016.55 1016.46 1016.17 1015.97 1015.70 1015.37 1015.24
1022.54 1022.49 1022.80 1022.88 1022.24 1021.54 1021.10 1020.89 1020.73 1020.91 1021.42 1021.89 1022.14 1022.38 1022.59 1022.58 1022.21 1022.02 1021.58 1021.02 1020.58 1020.22 1019.88 1019.57 1019.11 1018.72 1018.41 1018.25 1018.23 1018.46 1018.55 1018.48 1018.28 1018.10 1017.96 1017.72 1017.49 1017.28 1016.91 1016.49 1016.25 1016.08 1016.02 1015.94
1022.72 1022.61 1022.79 1022.79 1021.94 1021.63 1021.08 1020.85 1020.88 1021.46 1021.94 1022.33 1022.54 1022.68 1022.74 1022.61 1022.41 1022.08 1021.45 1021.02 1020.63 1020.29 1019.90 1019.51 1019.16 1018.89 1018.86 1018.94 1019.12 1019.09 1018.99 1018.81 1018.62 1018.55 1018.47 1018.27 1017.86 1017.50 1017.21 1016.96 1016.85 1016.51 1016.60 1016.74
1022.57 1022.38 1022.59 1021.99 1021.34 1021.52 1021.31 1021.40 1021.47 1021.88 1022.35 1022.59 1022.72 1022.72 1022.72 1022.66 1022.40 1021.77 1021.34 1020.93 1020.53 1020.20 1019.95 1019.58 1019.34 1019.41 1019.61 1019.80 1019.80 1019.67 1019.55 1019.30 1019.13 1018.98 1018.92 1018.84 1018.49 1018.09 1017.88 1017.54 1017.19 1017.09 1017.01 1016.76
Thickness
5725 5710 5702 5714 5714 5712 5702 5698 5699 5705 5706 5683 5673 5674 5680 5687 5694 5693 5687 5681 5675 5668 5666 5665 5663 5660 5654 5648 5644 5640 5637 5631 5629 5629 5629 5629 5629 5631 5631 5628 5628 5630 5632 5634
5708 5702 5716 5716 5710 5706 5701 5691 5691 5697 5698 5682 5671 5665 5672 5674 5673 5677 5678 5670 5663 5658 5654 5652 5648 5644 5640 5636 5631 5626 5620 5616 5613 5611 5612 5612 5611 5612 5610 5609 5611 5613 5614 5614
5697 5710 5717 5710 5704 5697 5692 5687 5688 5689 5688 5685 5670 5656 5658 5666 5665 5668 5663 5658 5654 5650 5645 5642 5638 5633 5627 5622 5616 5612 5607 5605 5603 5601 5601 5599 5596 5593 5593 5594 5594 5593 5594 5595
5703 5711 5706 5702 5700 5695 5685 5697 5694 5689 5670 5656 5671 5637 5652 5655 5652 5650 5648 5645 5643 5641 5637 5632 5626 5621 5615 5609 5604 5599 5596 5593 5592 5590 5586 5581 5577 5574 5573 5573 5574 5576 5579 5582
5692 5698 5698 5693 5695 5698 5686 5694 5680 5678 5659 5658 5661 5639 5642 5649 5646 5643 5641 5637 5633 5629 5624 5620 5616 5611 5605 5598 5591 5587 5584 5582 5578 5573 5570 5569 5565 5563 5562 5563 5563 5565 5566 5569
5692 5701 5699 5696 5692 5693 5687 5679 5659 5647 5640 5630 5653 5640 5634 5634 5642 5640 5638 5631 5626 5621 5615 5609 5604 5598 5591 5586 5582 5579 5573 5568 5563 5560 5557 5555 5553 5553 5552 5554 5553 5553 5555 5556
5679 5682 5691 5697 5684 5683 5671 5650 5622 5627 5618 5624 5640 5626 5638 5645 5644 5641 5634 5624 5619 5612 5604 5598 5592 5587 5583 5577 5572 5569 5563 5558 5555 5551 5548 5546 5544 5542 5540 5540 5542 5542 5544 5545
5647 5649 5674 5682 5679 5670 5656 5649 5618 5620 5608 5617 5628 5624 5634 5645 5644 5636 5624 5616 5611 5603 5594 5588 5584 5579 5573 5568 5563 5559 5553 5549 5546 5542 5538 5536 5534 5532 5528 5527 5529 5531 5531 5534
5648 5654 5671 5673 5676 5671 5653 5636 5640 5612 5602 5595 5609 5625 5636 5632 5627 5621 5610 5606 5599 5591 5584 5579 5576 5570 5565 5559 5555 5549 5545 5541 5537 5532 5527 5524 5523 5521 5520 5518 5517 5518 5519 5521
5653 5645 5657 5663 5669 5658 5652 5640 5616 5599 5603 5596 5596 5599 5606 5612 5611 5607 5599 5594 5587 5581 5575 5569 5561 5556 5552 5548 5542 5537 5532 5527 5523 5519 5516 5514 5513 5512 5509 5506 5504 5504 5507 5506
5651 5642 5645 5649 5635 5632 5626 5617 5603 5595 5583 5582 5574 5585 5604 5595 5597 5594 5588 5582 5573 5567 5560 5554 5549 5544 5539 5534 5530 5526 5521 5517 5514 5512 5507 5506 5505 5502 5498 5494 5493 5492 5492 5491
5638 5622 5620 5626 5626 5627 5624 5608 5592 5569 5585 5566 5542 5570 5593 5587 5588 5584 5579 5573 5566 5559 5550 5543 5537 5532 5527 5523 5518 5513 5509 5505 5504 5501 5499 5498 5496 5493 5490 5488 5486 5483 5482 5481
5633 5607 5588 5604 5606 5618 5608 5605 5596 5573 5555 5570 5555 5578 5589 5583 5578 5573 5567 5560 5554 5549 5543 5534 5526 5519 5514 5508 5505 5502 5497 5495 5494 5492 5491 5491 5489 5487 5487 5484 5479 5476 5474 5473
5624 5596 5598 5584 5599 5597 5597 5597 5591 5572 5531 5563 5566 5574 5576 5571 5567 5560 5554 5550 5544 5538 5532 5524 5515 5508 5503 5500 5496 5491 5489 5487 5486 5485 5486 5484 5482 5478 5476 5474 5471 5468 5466 5465
5609 5599 5598 5599 5595 5594 5593 5591 5585 5573 5569 5557 5570 5565 5566 5560 5556 5551 5547 5541 5535 5531 5525 5517 5509 5501 5495 5493 5488 5483 5480 5478 5478 5479 5480 5478 5476 5470 5468 5466 5463 5460 5459 5457
5592 5577 5588 5589 5587 5587 5583 5584 5581 5578 5578 5567 5566 5563 5563 5558 5550 5544 5539 5531 5527 5523 5518 5509 5501 5494 5489 5484 5479 5476 5473 5472 5471 5474 5475 5475 5469 5465 5462 5458 5456 5454 5453 5453
5585 5568 5562 5577 5574 5572 5566 5580 5580 5578 5573 5565 5553 5555 5554 5548 5542 5537 5533 5524 5519 5515 5506 5498 5491 5484 5480 5475 5471 5468 5468 5468 5470 5472 5472 5467 5464 5461 5458 5455 5452 5451 5450 5450
5567 5555 5546 5535 5561 5549 5576 5579 5576 5570 5566 5558 5554 5550 5545 5540 5535 5527 5521 5513 5511 5503 5496 5491 5485 5479 5473 5468 5466 5464 5464 5467 5470 5468 5466 5464 5461 5457 5455 5452 5451 5450 5449 5449
5567 5549 5528 5529 5498 5558 5571 5572 5568 5560 5555 5553 5547 5542 5537 5531 5522 5520 5518 5509 5499 5495 5491 5484 5475 5469 5466 5464 5464 5461 5464 5466 5464 5462 5460 5457 5454 5451 5450 5448 5446 5445 5446 5447
5561 5550 5540 5518 5530 5554 5563 5567 5566 5551 5530 5547 5538 5531 5522 5516 5514 5520 5504 5495 5491 5484 5477 5472 5466 5462 5461 5463 5460 5459 5462 5460 5459 5455 5452 5449 5447 5445 5443 5441 5439 5439 5439 5440
5549 5544 5542 5519 5525 5542 5559 5560 5556 5525 5527 5536 5530 5519 5513 5504 5496 5490 5486 5484 5475 5469 5465 5462 5458 5457 5459 5460 5458 5457 5458 5455 5452 5448 5446 5443 5441 5439 5439 5438 5438 5438 5436 5437
5551 5535 5528 5532 5535 5536 5556 5552 5540 5532 5532 5529 5523 5512 5500 5490 5485 5483 5478 5469 5463 5460 5458 5455 5452 5455 5458 5458 5458 5457 5454 5449 5446 5443 5441 5439 5438 5437 5436 5435 5431 5431 5431 5430
5546 5546 5532 5536 5534 5542 5546 5542 5537 5527 5521 5517 5508 5495 5487 5480 5478 5473 5465 5460 5457 5453 5452 5451 5450 5455 5458 5461 5459 5454 5449 5444 5442 5439 5437 5435 5433 5430 5426 5424 5421 5420 5422 5424
5548 5543 5538 5535 5542 5540 5537 5531 5529 5526 5515 5502 5495 5487 5477 5470 5467 5461 5457 5457 5455 5453 5451 5450 5452 5455 5457 5456 5454 5449 5445 5442 5440 5437 5433 5429 5424 5421 5419 5419 5417 5415 5414 5415
5531 5539 5531 5523 5531 5531 5530 5527 5525 5512 5500 5492 5484 5477 5469 5462 5458 5456 5457 5456 5455 5453 5452 5454 5456 5457 5455 5453 5449 5446 5443 5441 5437 5432 5427 5423 5422 5421 5418 5416 5410 5410 5407 5406
5526 5532 5511 5514 5532 5525 5523 5517 5513 5503 5494 5484 5476 5469 5462 5457 5454 5457 5456 5456 5456 5455 5456 5458 5458 5456 5452 5449 5445 5443 5440 5437 5432 5429 5424 5420 5417 5416 5414 5411 5410 5407 5405 5405